Flag Weather past 2 weeks in Lanzhou, Gansu, China

Now
30 °F

Broken clouds.


Feels Like: 30 °F
Forecast: 23 / 42 °F
Wind: No wind

Location: Lanzhou / Zhongchuan

Current Time: Nov 27, 2014 at 2:13:49 PM

Latest Report: Nov 27, 2014 at 1:00 PM


Visibility: N/A

Pressure: 30.07 "Hg

Humidity: 80%

Dew point: 25 °F

Location of LanzhouLocation

Historic Weather in Lanzhou — Graph

°F

Lanzhou temperature yesterday

Maximum temperature yesterday: 37 °F (at 12:00 PM)
Minimum temperature yesterday: 23 °F (at 8:00 AM)
Average temperature yesterday: 32 °F

Past Weeks' High & Low Weather Summary

 TemperatureHumidityPressure
High50 °F (Nov 25, 3:00 PM)100% (Nov 25, 5:00 AM)30.39 "Hg (Nov 25, 5:00 AM)
Low18 °F (Nov 16, 7:00 AM)30% (Nov 20, 12:00 PM)29.80 "Hg (Nov 25, 4:00 PM)
Average31 °F68%30.18 "Hg
* Reported Nov 12 12:00 Noon — Nov 27 12:00 Noon, Lanzhou, Weather by CustomWeather, © 2014

Note: Actual official high and low records may vary slightly from our data, if they occured in-between our weather recording intervals... More about our weather records

Advertising

Lanzhou weather history for previous 24 hours

 ConditionsComfort  
Time TempWeatherWind HumidityBarometerVisibility
12:00 PM
Nov 27
30 °FScattered clouds.No wind80%30.09 "HgN/A
11:00 AM28 °FLight snow. Scattered clouds.1 mph86%30.12 "Hg4 mi
10:00 AM27 °FLight snow. Overcast.1 mph93%30.12 "Hg4 mi
9:00 AM27 °FLight snow. Partly sunny.No wind93%30.09 "Hg5 mi
8:00 AM27 °FLight snow. Mostly cloudy.1 mph93%30.07 "Hg1 mi
7:00 AM27 °FLight snow. Mostly cloudy.3 mph93%30.07 "Hg1 mi
6:00 AM28 °FLight snow. Overcast.6 mph80%30.04 "Hg5 mi
5:00 AM28 °FPassing clouds.3 mph74%30.04 "HgN/A
4:00 AM28 °FPassing clouds.6 mph74%30.04 "HgN/A
3:00 AM30 °FPassing clouds.8 mph69%30.01 "HgN/A
2:00 AM30 °FPassing clouds.6 mph69%30.04 "HgN/A
1:00 AM30 °FPassing clouds.6 mph69%30.04 "HgN/A
12:00 AM30 °FPassing clouds.6 mph69%30.04 "HgN/A
10:00 PM
Nov 26
30 °FPassing clouds.8 mph69%30.07 "HgN/A
9:00 PM30 °FPassing clouds.8 mph69%30.07 "HgN/A
8:00 PM30 °FPassing clouds.6 mph69%30.04 "HgN/A
7:00 PM30 °FPassing clouds.3 mph64%30.01 "HgN/A
6:00 PM32 °FScattered clouds.6 mph55%30.01 "HgN/A
5:00 PM34 °FScattered clouds.8 mph51%29.98 "HgN/A
4:00 PM36 °FSunny.13 mph48%29.98 "Hg10 mi
3:00 PM36 °FPassing clouds.10 mph48%29.95 "HgN/A
2:00 PM36 °FPassing clouds.8 mph48%29.98 "HgN/A
Weather by CustomWeather, © 2014

See weather overviewHow to use our weather pages